{"data":{"norad_id":49417,"epoch":"2026-05-24T23:27:10.640736Z","epoch_age_seconds":67136,"freshness":"FRESH","line1":"1 49417U 21104K   26144.97720649  .00000146  00000+0  27263-4 0  9998","line2":"2 49417  53.2157 236.3043 0001102  84.3208 275.7910 15.08837467250287","mean_motion":15.08837467,"eccentricity":0.0001102,"inclination_deg":53.2157,"raan_deg":236.3043,"arg_perigee_deg":84.3208,"mean_anomaly_deg":275.791,"bstar":2.7263e-5,"rev_number":25028,"period_min":95.437714896034,"perigee_km":538.98878007052,"apogee_km":540.51348261467,"semimajor_km":6917.8881313426,"source":"CELESTRAK","updated_at":"2026-05-25T13:38:16.796080Z"}}